Starlink 11162

operational
NORAD ID: 60123 Int'l Des: 2024-118 Owner: SPXS Country: US Constellation: starlink
LEOCIRCULAR

About Starlink 11162

Description loading...

Live Position

Loading 3D Globe...

Upcoming Passes

Altitude History

Altitude vs Time

uPlot chart will show altitude changes over time

Two-Line Element Set

1 60123U 24118L 26095.27888822 .00001844 00000-0 20098-4 0 9995
2 60123 53.1576 89.8760 0001373 43.9918 316.1209 15.69688432102172
Epoch: Apr 5, 2026 • Age: 13 hours

Current Status

Altitude 365.8 km
Velocity 7.69 km/s
Sub-Earth Point -18.85°S, 151.07°E
Launch Date Jun 24, 2024
Age 1.7 years
Type internet

Technical Details

Classification Payload
Mass 960.00 kg
Dry Mass 910.00 kg
Total Mass 960.00 kg
Length 0.30 m
Diameter 4.10 m
Span 29.00 m
Shape Box + pan
Manufacturer SPXS
Bus Type Starlink V2MD
Phase Status In Orbit
Owner/State SPXS/US

Large Constellations

Loading constellations...